Wind_Speed
8 8 8 7 6 5 4 4 5 5 6 7 7 6 5 5 4 3 3 3 3 3 4 4 3 1 1 1 2 2 3 3 3 3 3 5 9 9 7 5 5 6 6 6 7 13 18 19 20 19 19 20 21 23 23 25 26 27 28 28 27 27 27 27 26 26 24 23 22 21 20 19 19 18 18 17 17 17 17 17 18 19 20 22 23
8 8 8 8 7 5 5 5 5 6 6 6 6 6 6 5 4 3 3 4 3 3 4 4 3 2 1 1 1 2 2 3 3 3 3 7 10 10 10 8 8 8 7 8 8 10 15 19 20 19 19 19 21 23 24 25 26 27 28 28 27 27 28 27 26 25 24 22 21 20 19 18 18 18 17 16 16 16 16 16 17 18 19 21 22
10 9 9 8 7 6 6 6 6 6 6 6 6 6 6 5 4 3 3 4 3 3 3 3 2 2 1 1 1 2 2 3 3 3 4 6 7 9 12 12 12 10 9 10 10 9 12 18 19 20 19 19 20 23 24 25 26 27 28 28 27 28 28 28 27 25 23 22 20 19 18 17 17 17 16 15 15 15 15 15 16 16 18 19 21
10 10 9 9 7 7 6 7 7 7 6 6 6 6 5 4 3 3 3 3 2 2 2 2 1 1 1 1 2 2 2 3 2 2 3 5 6 9 13 16 17 15 14 13 13 11 11 17 19 20 20 19 20 22 24 25 26 27 28 28 27 28 28 28 27 25 23 21 19 18 17 16 16 16 15 14 14 13 13 14 15 15 16 18 19
11 11 10 9 7 7 6 7 8 7 7 6 6 6 5 4 3 3 2 2 1 1 0 1 1 0 1 2 2 2 3 3 3 2 1 3 5 8 12 17 19 19 18 16 14 12 12 16 19 20 21 20 20 22 24 25 26 27 28 28 28 28 28 28 27 26 23 21 19 17 16 15 15 15 14 14 13 12 12 13 13 14 15 16 18
11 11 9 8 7 7 7 8 8 8 7 7 7 6 5 5 4 3 2 1 1 1 1 0 0 1 1 2 2 2 3 3 3 3 1 1 3 6 9 13 17 18 17 14 12 11 12 15 18 20 21 21 21 22 25 26 27 27 28 28 27 28 28 28 27 26 24 21 19 17 15 14 14 13 13 13 12 11 11 11 12 12 14 15 17
11 10 9 8 8 9 8 9 9 8 8 8 7 7 6 5 4 4 3 3 2 2 1 1 0 1 2 2 3 3 3 3 4 4 3 1 2 5 7 10 12 13 13 12 10 9 11 15 18 20 22 22 22 23 25 26 27 28 28 28 27 28 28 28 27 27 25 22 19 17 15 13 13 12 12 12 11 10 10 10 10 11 12 14 15
11 10 10 9 9 9 9 10 10 9 9 8 7 7 6 5 5 4 4 4 3 2 1 1 1 2 3 3 4 4 4 4 4 4 5 3 2 4 6 8 9 10 10 11 11 9 11 15 18 20 22 23 22 23 25 27 27 28 29 28 27 27 28 28 27 26 25 23 20 17 15 13 12 11 11 10 10 9 9 8 9 10 11 13 14
11 11 11 10 10 10 10 10 10 9 8 8 7 7 6 6 5 5 4 3 4 3 2 2 2 2 3 4 5 5 5 5 4 4 4 3 1 3 4 6 8 9 9 9 9 8 11 16 18 20 22 24 23 23 24 27 27 28 29 29 27 27 28 28 27 26 25 23 21 18 15 13 12 10 9 8 8 8 7 7 8 9 11 12 13
11 11 11 11 11 11 10 10 10 9 8 7 7 7 6 6 6 5 3 3 3 3 2 2 2 2 3 3 4 4 4 4 4 3 3 3 1 2 3 5 7 8 8 8 7 6 10 16 18 20 23 24 24 23 24 27 28 29 29 30 28 27 28 28 27 26 25 24 21 19 17 14 12 10 8 7 6 5 6 6 6 8 10 11 13
10 11 11 11 11 10 10 9 9 9 7 7 7 7 7 6 5 4 4 3 2 1 2 2 2 2 3 3 3 3 3 3 3 3 3 3 4 4 4 6 7 7 7 7 6 6 9 14 17 19 23 24 25 23 24 27 28 28 29 30 29 27 27 27 27 26 25 24 22 20 18 15 13 10 8 6 4 3 3 4 5 6 8 10 11
10 10 11 11 10 10 10 9 8 8 8 7 6 6 7 6 5 5 5 4 2 0 1 2 2 2 2 2 3 2 1 1 2 2 2 4 5 6 7 7 8 8 7 8 6 5 9 12 14 18 22 25 25 24 24 26 28 28 29 30 30 28 27 27 27 26 25 24 22 20 18 16 14 11 9 6 4 2 2 2 3 5 7 8 10
9 9 10 10 10 10 9 9 8 9 9 8 7 7 7 6 6 6 6 5 3 1 0 1 2 3 3 3 2 2 1 0 1 3 3 4 6 7 9 9 8 8 7 7 6 4 8 12 12 16 22 25 25 23 23 25 27 28 28 30 31 30 28 27 26 26 25 24 22 21 19 17 14 12 9 7 5 3 1 1 2 4 6 7 9
8 8 8 9 10 9 8 8 8 8 9 8 8 9 7 7 7 7 7 6 4 3 2 1 1 2 3 3 3 2 2 1 2 4 4 6 7 9 10 9 8 7 7 6 6 4 6 11 12 15 21 25 25 23 23 24 26 28 28 29 31 31 29 27 26 25 24 23 23 21 20 18 15 13 10 8 6 4 2 1 1 3 5 6 8
8 8 7 7 8 7 7 7 7 7 7 8 9 8 7 7 7 7 7 7 5 4 4 4 3 3 3 3 4 4 3 2 3 4 5 7 9 9 9 9 8 8 8 7 7 6 4 10 13 15 20 25 25 24 23 23 25 27 27 28 30 31 30 28 26 25 24 23 23 22 20 18 16 14 12 9 7 5 3 2 1 2 4 6 7
8 7 7 7 7 6 6 6 6 6 6 7 7 7 6 7 8 8 7 7 7 6 6 5 4 4 3 4 5 5 5 4 4 5 6 9 10 9 10 9 9 9 9 9 9 9 5 7 13 16 20 24 25 25 24 23 24 26 27 27 28 30 30 29 27 25 24 23 23 22 20 19 17 15 13 11 8 6 4 3 3 3 4 6 7
7 7 8 7 7 6 6 6 6 6 5 5 6 5 6 8 9 7 7 9 9 7 7 6 5 5 5 6 6 5 6 5 5 6 8 9 10 10 10 10 11 10 11 11 10 10 8 6 12 17 20 24 25 25 25 24 23 25 26 27 27 29 30 29 28 26 25 24 23 22 21 20 18 16 15 13 10 8 6 5 4 4 5 5 6
8 8 8 7 6 5 6 6 6 5 4 4 6 6 7 9 8 7 10 12 8 7 8 7 6 6 6 6 6 5 5 6 6 8 9 9 9 10 10 11 12 12 12 12 11 10 10 7 10 17 20 23 26 26 26 25 23 24 25 27 27 28 29 29 28 27 26 24 24 23 22 21 19 18 16 15 13 11 9 7 6 5 5 5 5
8 7 6 5 4 5 5 5 4 4 4 5 6 6 7 8 8 9 11 9 6 8 10 7 7 7 7 7 7 5 4 6 7 8 8 8 9 9 9 11 12 13 12 12 12 11 10 9 8 15 20 23 26 26 26 26 25 24 25 26 27 28 29 29 28 28 27 25 24 23 23 22 21 19 18 16 14 13 11 9 8 7 6 5 5
6 5 4 4 4 5 5 5 5 5 5 6 6 7 7 7 9 10 10 7 6 11 10 7 7 7 7 8 7 5 4 6 7 8 9 9 9 9 9 11 11 12 12 11 12 11 11 10 9 13 19 23 25 27 27 27 26 25 25 26 27 27 27 28 28 28 27 26 25 23 23 22 21 20 19 17 15 14 12 10 9 8 7 7 6
5 4 4 4 4 5 6 6 6 6 7 8 7 8 8 8 10 10 9 8 8 11 9 6 7 8 8 8 8 6 6 7 7 7 9 9 9 10 10 11 11 10 10 10 11 11 11 11 10 11 16 22 24 26 28 28 28 26 25 25 27 27 27 27 28 27 27 27 26 24 23 22 21 20 19 18 16 15 13 11 10 9 9 8 7
5 5 5 5 6 6 6 6 7 8 8 9 9 9 9 9 10 10 10 9 9 10 8 7 8 9 9 8 8 7 7 8 6 7 9 9 9 10 10 10 10 9 8 9 9 10 10 11 12 10 13 20 23 25 28 29 29 28 26 26 27 28 27 27 27 27 27 27 26 25 23 22 21 20 19 18 17 15 14 12 11 11 10 9 8
6 6 6 6 6 6 6 7 8 9 9 10 10 11 10 10 11 11 11 11 11 10 9 9 9 9 9 9 8 8 8 7 6 7 8 7 7 8 8 8 8 7 7 8 8 8 8 9 10 9 11 18 21 23 28 30 30 29 27 26 26 27 27 27 26 27 27 26 26 25 24 22 20 20 19 18 17 16 14 13 12 12 11 11 9
5 5 5 4 5 6 7 8 9 10 10 11 11 11 11 11 11 11 11 12 12 12 11 11 10 10 10 9 9 8 8 7 6 7 7 7 6 6 7 7 6 7 7 8 8 7 7 6 8 8 10 15 19 21 26 30 31 30 28 27 26 27 27 27 26 26 26 26 26 25 24 22 20 19 18 18 16 15 14 13 13 12 12 12 10
4 3 3 4 5 6 8 10 11 12 12 12 12 12 11 11 12 12 13 14 15 14 13 12 11 12 12 11 10 9 8 7 7 8 8 8 8 7 8 7 7 7 7 7 7 8 7 5 6 8 10 13 16 17 23 29 30 30 29 27 27 27 27 27 27 26 26 26 25 24 24 22 20 19 18 17 16 15 14 13 13 13 13 12 10
3 2 3 4 6 8 10 11 13 13 14 14 14 13 12 12 12 13 15 16 17 16 14 14 13 13 13 12 11 10 9 8 8 8 8 9 9 9 9 8 7 7 6 5 6 7 7 5 6 8 10 13 15 16 20 26 30 30 29 28 27 27 27 27 27 26 26 25 24 24 23 22 21 19 18 17 16 15 14 13 12 13 13 12 11
3 4 6 8 9 10 12 13 15 15 16 15 15 14 13 13 13 13 15 16 17 16 15 15 15 15 14 13 13 11 10 9 9 8 7 8 9 10 10 9 8 7 6 6 6 6 6 6 6 8 10 13 15 15 17 24 29 30 30 28 27 27 27 27 27 27 26 25 24 23 23 22 21 20 18 17 16 15 14 13 12 12 12 12 10
6 8 10 12 13 14 15 16 17 17 17 16 15 15 14 14 13 13 14 15 16 17 16 15 15 15 15 15 14 12 11 10 10 9 8 8 9 10 10 9 9 9 9 9 8 7 7 6 7 8 11 14 15 15 16 20 26 29 29 29 28 27 27 27 27 27 26 25 24 24 23 22 22 21 19 18 17 16 15 14 13 13 12 12 11
8 11 14 16 17 17 17 18 18 18 17 16 15 15 14 14 14 13 13 14 15 17 17 16 16 15 16 16 15 14 12 12 12 11 10 9 9 10 10 11 11 11 11 12 11 10 9 8 7 8 10 13 16 17 17 18 23 27 29 29 28 28 27 27 27 27 27 26 25 24 24 23 22 21 20 19 18 17 16 15 14 14 13 13 12
8 10 12 13 14 15 16 16 17 17 16 15 14 14 14 14 14 14 13 13 14 16 17 17 17 16 16 16 16 16 15 14 14 13 13 10 8 11 12 11 11 12 13 14 13 11 11 9 7 8 10 13 15 18 19 19 21 25 28 29 29 28 27 27 26 27 27 27 26 25 24 24 23 22 21 20 19 18 16 16 15 15 15 14 14
6 7 7 7 9 10 11 12 13 13 14 13 13 13 14 14 14 14 14 14 14 15 16 17 17 16 16 17 17 16 16 16 17 16 14 8 7 12 13 10 10 11 12 14 12 12 13 11 8 8 10 12 15 17 19 21 22 24 27 29 29 29 28 27 26 26 26 27 27 26 25 25 24 23 23 21 20 19 18 17 17 17 16 16 16
5 6 7 8 9 9 8 9 9 10 11 12 12 13 13 14 14 14 14 15 14 14 14 15 15 15 15 17 17 17 16 16 18 17 13 8 8 12 13 10 10 11 12 13 13 12 14 13 10 8 9 11 14 16 18 21 23 24 26 28 29 29 28 28 27 26 26 26 26 27 27 26 26 25 24 23 22 21 20 19 18 18 18 18 17
5 6 7 9 10 11 9 8 8 10 11 12 12 12 13 13 13 13 14 14 14 13 15 15 14 14 15 16 17 18 17 16 17 18 14 9 8 12 14 12 11 11 12 14 14 13 14 13 11 10 8 9 13 16 17 19 22 23 24 27 29 30 29 29 28 27 26 26 27 27 28 28 27 27 26 25 24 23 22 21 20 20 20 19 19
5 6 7 9 12 14 12 9 8 10 11 12 12 13 13 14 14 14 14 14 13 13 15 16 15 14 15 16 17 19 18 17 18 18 17 13 12 15 16 13 11 12 13 14 14 14 14 13 13 10 7 7 9 14 17 17 19 20 21 24 27 29 31 30 29 28 28 27 27 27 28 28 28 28 28 27 26 25 24 23 22 22 21 21 20
5 6 7 9 13 15 13 9 7 9 11 13 13 13 14 14 15 15 15 14 13 13 14 16 17 18 18 19 20 20 20 19 18 18 18 17 16 16 16 13 13 14 15 13 13 13 13 13 13 12 9 7 6 10 14 15 16 18 20 21 23 26 30 30 30 29 28 28 28 27 27 28 28 28 28 28 27 27 26 25 25 24 24 23 23
5 6 7 9 12 13 11 7 5 7 8 10 12 13 14 15 15 16 16 15 14 14 14 15 18 20 22 23 23 22 21 20 19 19 19 19 18 15 14 15 14 14 13 12 12 13 14 14 13 13 12 10 7 7 11 14 15 16 18 20 20 23 26 28 29 29 29 29 28 28 27 27 27 28 29 29 28 28 27 27 26 26 25 25 25
5 5 6 8 11 11 8 6 6 7 8 8 9 10 13 15 16 16 16 16 15 15 16 16 18 20 21 22 22 23 23 22 21 21 20 19 19 15 14 15 14 12 11 11 13 13 13 13 13 14 14 13 12 9 8 11 13 14 15 16 17 19 22 24 27 28 29 29 29 29 28 27 27 27 28 29 29 29 28 28 28 27 27 27 26
5 4 4 7 8 8 7 7 8 10 11 11 11 10 10 12 14 16 16 16 15 15 17 17 18 19 20 20 20 21 23 24 25 25 23 21 20 17 15 16 14 12 11 12 12 12 11 12 14 14 13 13 13 12 10 9 9 11 12 12 12 13 16 19 23 26 28 29 29 29 28 27 27 26 26 27 28 29 29 29 29 29 28 28 28
6 3 3 5 6 7 8 8 10 12 13 14 13 12 9 8 10 12 13 14 14 15 16 17 18 19 19 18 18 19 20 23 25 27 27 25 23 20 17 15 15 14 14 14 14 12 11 12 14 14 13 12 12 13 14 13 11 10 10 9 9 10 12 15 19 22 25 27 28 28 28 28 27 27 26 27 28 28 29 30 30 30 29 29 29
6 3 2 3 5 6 6 7 9 12 14 15 15 14 11 8 7 8 9 9 10 12 14 15 16 17 17 17 17 17 17 18 22 25 26 27 26 24 21 18 17 16 15 15 15 15 13 13 13 14 14 13 14 14 14 16 16 14 12 9 8 10 10 13 16 19 22 25 27 27 27 27 27 27 27 27 27 28 28 29 29 29 29 29 29
7 4 2 2 3 5 5 5 8 11 13 15 15 15 12 9 8 6 5 6 7 8 10 12 13 14 15 15 16 15 15 15 16 19 21 23 25 25 25 23 21 20 19 16 15 15 14 13 12 13 14 14 15 16 14 14 16 15 13 11 9 9 10 11 14 16 19 22 24 26 26 26 26 26 27 27 28 28 29 29 29 29 29 29 29
7 5 4 3 2 4 5 5 7 9 11 14 15 14 13 11 9 6 4 4 5 7 8 9 10 11 12 12 13 13 13 13 14 14 15 17 19 21 22 22 23 23 22 20 16 15 14 13 12 11 12 13 15 16 15 15 13 12 13 14 12 11 10 10 12 14 17 19 21 22 23 24 24 25 27 27 28 28 29 30 30 30 30 30 30
10 8 7 5 3 3 5 6 7 8 9 12 14 13 13 11 8 6 3 3 4 5 6 7 7 8 9 10 10 11 11 12 13 13 12 12 13 14 14 16 19 22 24 22 20 18 17 16 14 13 13 13 15 15 14 14 13 12 15 16 15 15 13 11 12 13 14 15 17 18 20 21 22 23 24 25 25 26 28 29 30 30 31 31 31
13 10 7 5 4 4 6 7 8 9 9 10 12 13 12 11 8 6 3 2 3 5 6 6 5 5 5 6 7 7 8 9 10 11 12 11 10 10 9 9 12 17 21 22 21 21 20 20 18 17 16 15 15 15 13 12 12 13 15 14 15 17 16 14 13 13 14 14 15 16 17 18 20 21 21 21 22 23 24 26 27 28 29 30 30
14 9 8 7 6 6 8 9 10 11 10 9 11 12 12 10 7 5 4 3 3 4 5 4 3 2 1 1 2 3 3 5 7 8 9 10 9 9 9 8 8 11 15 18 19 20 21 21 20 20 19 18 17 15 15 14 12 13 15 14 14 15 16 16 16 14 14 15 15 16 16 16 17 18 18 19 19 19 20 22 23 24 25 26 27
15 9 8 8 8 9 10 11 12 12 11 9 9 11 11 10 7 5 4 4 2 2 2 2 2 2 2 2 2 2 2 3 4 5 6 7 7 7 8 8 8 9 12 13 15 15 17 19 19 19 19 19 19 18 18 17 15 15 16 15 15 15 14 14 15 15 16 16 15 17 17 17 16 16 17 17 17 17 18 19 20 21 22 23 24
16 10 8 6 6 9 10 11 13 13 12 10 8 10 10 9 7 4 3 3 2 1 1 1 1 1 0 1 2 2 3 3 3 4 5 5 5 5 5 6 8 9 11 12 12 13 14 15 16 16 17 19 20 20 21 21 19 18 19 18 18 18 16 15 15 15 17 18 18 18 19 18 18 18 17 17 17 17 17 17 18 19 20 21 22
17 12 10 6 4 7 9 12 14 14 13 11 9 9 9 9 7 5 3 2 2 1 2 2 2 2 3 4 5 5 5 5 5 5 6 5 5 4 4 5 6 7 9 11 11 11 11 13 14 15 15 16 18 20 21 22 22 22 22 22 22 21 19 19 19 19 19 19 20 21 20 18 19 19 19 20 19 19 19 18 18 18 19 20 20
19 15 12 9 6 6 8 12 14 14 12 11 9 9 9 8 7 6 5 3 3 2 3 4 4 5 6 7 7 7 7 6 7 7 7 7 6 5 4 5 5 6 7 9 9 9 9 10 12 13 14 14 15 16 18 19 20 21 22 23 23 23 23 24 24 23 23 23 23 23 22 20 20 21 22 22 21 21 21 20 20 20 21 21 21
21 17 15 12 9 6 6 9 11 11 10 10 10 9 8 7 6 7 6 5 4 3 4 5 5 6 8 8 9 9 8 7 6 7 7 8 7 6 6 6 6 6 7 8 8 8 8 8 9 11 11 12 12 13 14 16 17 18 19 20 21 22 23 24 25 25 26 27 26 26 25 24 22 22 24 24 22 22 22 22 22 22 23 24 24
23 20 17 15 12 8 5 7 8 8 9 10 10 9 7 6 6 6 7 6 5 4 4 5 6 7 8 10 10 10 9 8 7 6 7 7 7 7 6 6 7 7 8 8 9 9 8 8 8 9 10 10 10 10 11 12 13 14 16 17 18 18 19 20 21 23 25 26 27 27 27 27 25 25 27 27 25 26 26 26 26 26 27 27 27
Wind_Direction
218 222 226 233 230 219 189 164 155 164 161 155 149 141 136 134 131 127 127 125 120 123 117 101 94 83 12 318 311 310 307 304 297 258 179 184 232 234 207 198 198 184 164 170 155 162 173 169 165 163 164 167 165 162 160 160 160 158 155 153 151 148 145 143 141 138 136 133 129 126 122 119 114 108 103 97 91 85 78 74 71 67 64 60 57
218 224 223 225 222 207 186 169 167 174 167 162 154 144 144 143 141 138 139 135 132 136 119 104 98 91 53 332 314 313 309 307 291 260 213 208 228 216 197 188 177 179 181 185 167 160 174 173 169 166 166 169 168 166 163 162 162 161 158 157 155 151 148 146 144 142 140 136 132 129 125 121 116 111 106 100 93 86 79 74 71 66 61 58 54
207 216 217 219 214 200 186 170 170 175 167 166 157 150 153 149 149 151 154 151 151 149 124 111 107 93 78 332 319 321 318 312 291 263 244 223 220 205 196 182 168 177 202 200 182 176 178 177 174 169 169 170 171 170 168 165 165 164 162 160 158 155 151 150 148 146 143 140 137 133 129 125 119 114 110 104 96 88 81 76 71 65 60 57 52
203 209 211 210 203 194 184 169 171 175 169 170 168 161 160 158 161 166 164 162 166 164 133 120 112 73 46 334 326 332 332 324 311 273 249 231 219 207 199 193 188 196 211 208 195 187 179 178 177 173 171 171 173 174 173 169 168 167 165 164 162 159 155 153 151 150 147 145 142 137 133 128 122 117 112 107 100 91 83 78 71 65 59 55 51
202 206 205 200 195 189 184 171 171 177 175 177 177 172 173 177 182 183 177 174 192 199 159 131 111 6 332 325 322 335 353 353 350 345 281 244 224 207 203 203 203 208 213 210 202 193 181 178 179 176 174 174 175 176 177 173 171 170 169 168 166 163 160 157 154 153 153 150 147 143 139 133 127 121 115 109 103 95 86 79 71 64 58 52 49
203 204 198 194 191 184 187 175 173 179 179 181 181 181 185 191 198 203 213 235 266 280 273 223 219 329 312 313 321 340 358 1 9 19 19 255 221 204 202 208 209 211 215 213 205 195 183 178 180 179 177 176 176 178 181 177 174 173 172 171 170 167 164 162 158 157 157 156 154 151 147 140 133 126 119 112 106 98 88 79 71 63 56 50 46
199 200 193 190 187 181 185 178 178 183 180 182 183 183 193 200 207 216 231 250 260 273 272 274 317 337 324 322 331 344 357 3 15 30 42 74 186 193 198 209 215 217 222 222 214 204 190 182 182 182 180 179 178 179 182 181 177 177 176 174 174 172 169 166 164 161 161 162 160 158 155 149 141 133 124 115 108 100 89 79 69 60 53 47 43
198 198 191 182 182 181 184 180 181 188 183 183 185 185 197 206 212 223 238 258 269 279 282 316 347 351 339 333 336 340 346 357 10 28 43 51 151 190 200 207 217 223 228 230 224 216 202 190 185 185 183 181 180 180 184 184 180 180 179 178 178 176 174 171 169 166 164 165 165 164 163 159 152 142 132 120 109 100 89 77 66 56 49 43 40
198 197 187 176 178 180 185 184 184 191 186 184 188 191 203 213 220 230 245 272 288 294 300 322 336 345 345 336 335 337 342 348 356 13 32 37 99 190 209 217 224 226 231 238 236 226 209 195 190 188 186 184 182 182 185 186 183 183 183 181 181 181 178 175 174 172 169 169 170 170 170 169 163 154 143 129 115 101 88 74 61 52 45 40 37
196 192 181 173 176 179 185 186 186 187 185 190 193 196 209 219 225 234 247 272 294 306 319 337 349 351 352 343 331 331 341 340 341 350 1 8 342 242 230 238 242 238 239 244 244 236 210 196 194 192 188 185 183 183 185 187 185 185 186 184 183 186 183 179 179 178 175 173 174 175 177 177 174 169 158 144 128 106 86 69 56 48 42 37 33
192 189 178 174 177 181 185 186 189 185 187 199 197 200 211 219 226 231 236 251 273 324 344 346 360 5 360 352 339 337 351 343 332 335 338 335 314 285 261 259 262 259 254 248 238 227 210 198 198 196 189 186 185 184 187 188 188 187 189 188 186 188 188 184 183 183 182 180 179 180 182 183 182 180 176 167 149 122 89 64 52 45 38 33 30
186 185 178 177 180 184 187 190 192 185 190 199 199 207 210 212 221 221 226 230 218 190 355 349 7 23 19 6 357 2 18 338 307 296 310 313 302 290 276 271 275 274 268 261 249 222 209 203 201 199 192 188 186 186 188 190 190 189 190 192 189 190 191 189 187 187 188 187 185 186 187 189 190 189 189 187 177 161 104 68 53 43 35 29 27
181 182 179 180 181 187 190 194 193 186 189 192 200 217 212 209 215 217 226 228 219 218 266 11 32 36 34 17 8 19 5 306 236 239 252 271 285 287 280 274 276 278 276 270 266 239 207 204 201 198 194 189 187 187 190 191 192 192 191 194 193 191 193 193 192 192 192 193 191 192 193 194 196 197 198 199 196 194 147 94 56 38 27 23 21
181 186 184 180 181 186 189 194 196 191 190 191 203 217 215 212 214 218 226 228 226 237 238 237 309 351 2 352 354 355 335 310 237 233 236 246 265 277 277 271 268 270 275 275 276 268 207 204 199 193 196 191 187 188 190 193 194 195 193 195 196 194 195 196 196 197 197 198 197 197 198 200 202 204 205 207 206 204 187 149 36 21 13 12 13
185 190 188 183 182 184 187 195 199 196 191 193 204 212 216 218 220 220 224 226 228 242 245 244 269 295 316 325 334 329 314 297 262 253 244 252 265 272 277 275 272 273 276 281 282 283 226 204 201 193 195 193 190 189 190 194 196 197 196 196 198 197 197 198 198 200 201 201 202 201 201 202 204 207 210 210 211 211 204 213 301 348 353 356 1
198 199 195 192 191 188 193 202 203 201 192 196 208 214 225 227 222 215 219 231 234 240 247 252 265 281 298 306 312 312 302 292 278 269 260 264 272 278 284 287 285 282 282 284 284 283 268 209 202 196 195 195 194 192 189 194 197 199 199 198 200 200 199 200 200 201 204 204 205 204 203 204 204 207 209 210 212 214 218 238 278 314 329 338 348
212 211 205 203 204 202 208 212 207 206 199 207 222 231 235 230 223 216 220 224 229 239 247 255 268 284 295 297 298 300 296 292 284 275 268 269 274 280 287 293 294 290 288 287 284 278 273 229 201 199 196 195 197 196 192 192 197 200 201 200 200 202 202 202 202 202 205 206 206 205 204 204 205 206 207 208 209 212 220 237 262 287 306 321 333
216 215 213 211 212 215 222 223 215 216 216 217 230 245 247 241 241 242 234 224 221 238 244 252 269 286 292 291 290 291 297 294 283 273 270 272 274 280 287 292 295 293 292 288 286 276 267 247 203 199 199 197 198 200 196 193 196 200 202 202 201 203 204 203 204 204 205 207 207 207 207 206 207 208 209 210 210 213 218 228 242 261 280 298 314
209 211 216 219 227 236 240 244 243 248 253 239 233 239 246 255 260 250 245 242 234 239 241 252 269 280 282 285 284 282 297 291 278 270 268 276 279 285 291 292 293 289 288 287 285 279 264 251 215 201 200 199 199 200 199 196 195 199 203 204 203 204 205 204 205 206 206 207 209 209 210 210 210 212 214 215 216 219 223 228 238 249 261 277 292
192 201 221 239 256 266 268 272 278 279 276 270 257 244 242 250 255 250 252 257 244 242 245 258 276 283 279 280 278 275 292 285 276 271 268 275 281 287 290 289 289 286 284 285 285 281 269 253 229 208 203 200 200 199 199 199 196 198 202 204 205 205 206 207 206 207 208 209 210 211 213 214 215 217 220 222 223 226 229 234 242 249 257 266 275
185 203 230 250 262 271 280 285 288 287 284 280 272 262 254 245 245 250 254 252 251 253 253 263 280 284 281 276 273 273 280 281 279 271 265 271 280 283 285 285 289 289 285 285 285 281 274 260 240 219 207 201 201 200 198 199 197 197 201 204 206 207 207 208 208 209 210 211 211 212 214 216 219 222 224 226 227 230 234 238 245 252 257 262 267
199 217 235 249 258 266 276 283 286 287 285 280 273 267 263 251 242 243 246 248 254 260 261 266 273 276 277 274 273 272 271 278 279 266 262 271 279 279 279 281 287 290 288 286 283 278 273 266 252 234 214 204 202 201 198 198 198 198 200 204 206 208 208 209 210 210 211 213 214 214 215 217 221 224 227 230 232 234 237 239 245 252 257 258 259
211 227 239 250 258 267 276 281 285 284 282 278 274 269 264 255 243 238 239 243 248 254 259 261 265 270 272 270 270 267 266 276 273 261 259 266 271 270 272 276 285 291 295 295 289 282 271 266 258 245 224 208 203 201 198 197 199 199 199 203 206 208 209 209 210 211 212 215 216 217 217 218 221 226 230 232 234 236 237 239 243 248 252 253 251
216 230 243 259 272 281 285 286 284 282 279 275 272 269 264 255 244 237 233 239 244 245 248 253 257 262 265 262 261 261 262 266 257 251 250 257 261 262 268 269 277 288 301 308 300 290 276 264 260 250 233 215 208 204 199 197 199 200 199 201 205 207 209 210 211 212 213 215 218 219 220 220 221 226 230 233 234 234 235 236 240 243 246 247 245
211 233 259 285 299 301 299 293 288 282 276 272 270 267 262 253 242 234 230 236 240 238 240 246 250 253 257 255 253 255 259 256 247 244 244 250 256 258 261 257 267 282 295 314 308 294 285 270 256 245 235 221 217 212 202 197 198 200 200 201 204 207 208 210 211 212 213 215 217 219 221 221 222 224 229 232 233 234 234 234 236 239 240 242 242
190 236 288 306 312 311 308 301 293 286 278 273 270 266 261 251 240 234 231 234 236 236 238 241 245 248 251 250 250 253 254 250 244 246 247 248 252 256 259 257 268 277 278 297 298 290 287 276 257 242 233 226 224 221 209 200 198 200 201 202 204 206 208 210 211 212 214 215 216 218 220 221 221 222 226 230 232 233 234 232 232 234 236 240 243
221 281 297 305 308 306 306 304 297 289 282 276 271 267 263 255 245 237 233 234 235 236 238 240 244 246 249 250 250 251 249 248 247 248 249 249 252 255 256 256 261 266 266 271 273 275 276 268 259 246 236 230 229 228 216 203 199 200 203 203 204 207 208 210 211 212 214 215 216 218 219 220 220 220 223 226 229 232 233 230 229 230 233 237 241
272 295 302 305 306 305 302 301 296 289 283 278 274 270 267 263 256 245 237 234 233 233 235 238 240 241 246 252 251 251 249 247 248 249 250 250 253 257 257 254 256 261 266 267 267 270 268 255 248 243 240 237 233 233 225 211 203 201 203 205 205 208 209 210 211 213 215 216 217 218 218 218 218 218 219 222 225 228 230 228 225 226 229 233 238
292 302 303 303 303 303 300 297 292 287 283 280 278 275 272 268 263 256 246 237 232 231 232 234 236 236 241 248 251 250 248 247 247 246 248 248 254 264 262 258 261 268 272 271 270 273 273 261 244 233 234 238 237 235 233 222 210 205 205 206 207 209 210 210 211 213 215 216 217 218 218 218 217 216 217 221 224 225 226 225 224 224 226 230 235
304 308 305 302 301 299 297 293 289 285 283 281 279 276 273 269 265 261 254 243 233 231 231 233 235 235 236 241 247 249 249 249 249 247 248 249 257 263 261 261 268 274 274 270 270 273 273 266 250 236 231 235 237 234 233 229 220 211 207 208 209 210 211 212 212 213 215 217 218 218 219 219 219 218 217 220 223 224 224 224 224 224 226 230 234
325 330 330 327 323 314 304 293 287 283 280 279 277 275 272 270 268 263 257 249 239 234 233 233 234 236 236 238 241 248 251 253 253 250 250 250 254 259 261 268 272 271 264 260 264 271 273 267 253 244 234 231 234 235 233 231 226 219 212 209 211 212 212 214 214 214 215 217 219 220 220 221 221 220 219 220 222 224 224 224 225 226 228 231 236
344 350 353 356 355 345 325 301 287 279 275 275 274 274 273 272 271 266 262 255 245 241 238 234 233 233 236 239 241 244 247 253 258 259 258 252 256 264 268 269 268 272 267 259 258 261 267 268 261 250 239 230 231 235 237 234 230 225 218 213 212 213 214 215 216 216 216 217 219 220 221 222 222 222 222 222 222 224 225 226 227 229 231 234 238
344 350 352 354 354 350 338 310 287 276 272 271 271 272 272 271 270 265 263 258 249 246 242 237 235 235 237 241 245 246 246 249 256 262 261 255 257 263 265 262 264 275 275 267 263 257 258 261 259 253 243 233 231 233 237 239 237 231 226 219 214 214 215 216 217 218 218 218 219 220 222 223 223 224 224 225 225 225 226 227 229 231 233 237 240
335 341 343 348 351 350 343 324 295 277 270 268 268 270 270 268 267 263 262 261 256 250 244 238 237 240 239 239 243 246 247 250 252 256 258 253 247 253 260 265 266 265 262 260 262 263 263 260 258 260 252 240 235 233 231 236 241 238 233 228 221 217 216 217 218 219 219 219 219 221 223 224 225 226 226 227 228 228 228 229 231 234 236 239 243
319 327 335 345 351 351 347 334 304 279 268 265 264 265 266 265 264 263 262 262 261 257 251 242 240 243 242 242 244 241 240 246 250 253 255 251 246 250 261 266 263 260 261 263 266 269 267 263 266 270 263 254 247 235 230 231 237 240 237 235 229 223 220 218 218 219 220 221 221 222 223 225 227 228 228 229 230 230 231 231 233 236 239 242 245
300 317 334 347 354 356 355 344 317 294 282 276 272 268 267 265 263 262 262 261 261 260 257 250 246 247 247 248 249 242 237 241 247 250 251 250 248 249 256 260 257 258 265 269 268 266 257 253 261 264 258 259 258 239 232 229 230 236 241 240 237 231 226 222 220 220 221 222 223 223 224 226 228 230 231 231 232 233 234 234 236 238 241 244 247
285 310 335 353 0 4 4 356 346 336 323 314 305 291 279 271 267 264 263 261 261 259 257 254 251 251 251 250 249 245 241 242 244 248 250 250 251 249 249 254 256 257 260 260 261 263 258 252 255 257 256 263 263 246 230 225 224 230 238 243 244 240 233 227 223 222 222 223 224 225 226 226 228 230 233 234 235 236 237 237 239 241 244 247 249
272 298 337 357 6 11 13 5 360 354 344 337 332 323 301 281 271 265 262 260 259 257 255 254 252 252 252 252 251 248 246 246 245 248 250 250 252 251 246 249 254 256 256 259 262 265 265 260 256 254 256 264 263 253 244 236 231 231 236 244 250 247 241 234 228 224 223 223 224 225 227 228 229 231 233 235 237 238 240 241 241 243 245 248 251
259 278 331 358 9 15 15 11 5 360 352 345 343 341 327 301 281 267 262 259 256 256 255 253 253 253 253 253 253 251 248 247 247 248 250 251 252 251 249 250 253 254 254 260 262 261 259 256 252 250 252 257 258 260 256 243 239 244 245 249 255 249 242 239 236 230 226 226 226 226 227 228 230 231 233 235 238 239 241 242 244 245 247 249 252
242 248 287 347 7 11 8 9 7 1 353 349 350 350 345 331 313 288 271 263 258 257 256 255 254 253 254 253 254 254 252 249 248 250 251 252 251 250 250 251 253 256 257 259 259 257 252 251 252 251 250 250 254 267 267 245 237 242 244 246 252 248 240 239 239 235 231 229 228 228 228 229 231 233 235 237 239 241 242 244 245 246 248 250 253
231 224 233 296 353 360 347 343 359 1 353 350 353 354 351 344 337 320 292 276 271 266 263 260 258 256 256 255 255 256 257 255 253 254 254 254 253 252 251 250 252 255 258 258 257 255 250 249 251 251 248 246 252 264 274 260 240 234 237 240 245 241 234 235 235 233 232 231 230 229 229 230 232 234 236 237 239 241 243 245 246 247 248 250 252
221 204 213 243 297 339 323 313 336 350 351 351 352 353 351 348 347 340 315 295 289 282 276 271 268 265 263 262 261 260 261 260 259 258 257 257 257 258 256 253 251 252 254 255 255 254 252 248 246 250 251 249 251 255 263 268 256 238 231 228 230 233 223 217 218 220 224 227 228 228 227 227 229 231 233 236 238 240 242 243 245 246 247 249 251
222 210 220 236 255 302 301 294 309 326 341 349 349 349 349 350 357 1 344 314 302 296 290 285 280 277 272 269 268 266 264 263 263 264 262 261 260 262 261 256 252 249 250 252 253 255 256 254 249 251 254 251 252 251 253 262 261 252 237 223 221 225 221 212 204 204 210 218 223 223 223 223 225 228 231 233 235 238 240 242 244 244 246 247 249
235 232 235 235 240 272 279 276 290 305 323 342 346 345 344 348 3 15 13 351 321 304 297 293 287 280 273 269 269 270 268 264 264 265 266 266 264 266 264 258 251 247 248 249 251 254 256 257 254 252 253 250 250 253 256 258 254 253 250 240 230 226 226 225 217 210 205 208 215 219 223 224 225 229 230 232 234 237 240 242 244 245 245 246 248
243 240 238 234 236 256 266 269 281 293 306 328 341 340 338 345 0 18 31 28 348 310 295 291 278 253 232 255 287 297 292 278 269 266 268 268 266 265 264 260 251 246 249 249 249 250 253 255 254 252 251 248 248 251 255 255 253 255 256 255 249 242 239 233 229 231 225 216 214 216 222 226 230 232 232 233 235 239 242 244 246 246 246 247 248
244 235 231 232 240 254 263 270 276 284 295 310 330 334 332 339 352 10 36 48 29 343 313 285 239 187 133 84 35 3 339 316 293 280 276 274 270 266 262 257 251 247 250 252 250 248 249 252 253 252 250 247 246 246 249 251 252 258 259 258 260 261 259 248 239 239 240 238 232 226 225 225 229 236 238 237 237 240 244 246 248 249 249 250 250
242 225 217 222 243 259 264 269 271 276 286 296 316 328 326 332 343 349 21 60 67 33 350 273 215 188 145 12 346 330 318 308 298 290 285 285 283 276 266 257 251 247 248 253 254 250 248 251 253 253 250 249 247 245 246 247 247 249 251 252 256 257 260 263 259 252 249 249 246 243 239 230 228 232 237 241 241 242 244 246 249 251 252 253 254
237 218 204 197 224 254 260 264 266 272 280 288 302 316 319 324 334 331 338 38 55 359 318 309 307 312 314 316 314 309 302 294 286 282 279 282 283 280 274 267 259 254 253 256 258 256 251 252 254 255 253 250 249 248 247 248 247 247 247 247 249 251 252 255 258 259 257 255 252 251 250 244 241 239 238 240 241 242 245 247 249 250 251 252 253
230 215 203 193 201 233 253 260 264 270 277 283 289 302 312 318 325 326 322 344 19 8 342 334 336 336 332 327 319 312 305 296 286 279 274 274 275 273 270 270 270 266 263 264 266 264 258 255 257 260 261 258 256 255 254 254 253 252 252 251 251 251 252 252 253 253 254 254 253 252 252 251 250 249 247 244 242 243 244 246 249 250 250 250 250
222 215 208 200 199 216 243 252 260 264 266 269 274 287 305 311 316 322 321 321 338 351 346 342 345 347 345 340 334 326 319 310 297 284 276 271 267 266 263 263 267 269 268 270 271 272 267 262 260 262 265 266 263 261 260 260 260 259 259 258 256 255 255 255 255 253 252 253 253 254 254 254 253 253 255 255 252 251 250 250 252 253 253 251 250
215 212 205 199 198 204 221 231 239 244 246 255 263 275 298 309 308 313 316 314 317 324 330 332 338 346 349 348 345 340 335 329 320 306 291 281 272 266 263 259 260 262 264 267 269 272 271 268 266 266 267 268 268 267 264 263 264 264 264 264 264 262 260 258 258 257 256 256 256 257 257 258 257 255 257 260 261 261 261 260 260 260 259 258 255
Height
3160 3160 3160 3160 3160 3160 3160 3160 3160 3161 3161 3162 3162 3162 3162 3162 3163 3163 3163 3164 3164 3164 3164 3163 3163 3164 3164 3164 3164 3165 3165 3165 3166 3167 3168 3168 3168 3169 3170 3170 3170 3171 3173 3174 3174 3175 3176 3177 3178 3180 3181 3182 3183 3183 3184 3186 3187 3189 3190 3191 3192 3193 3194 3195 3195 3196 3197 3198 3199 3199 3200 3200 3200 3200 3200 3200 3199 3199 3199 3199 3199 3199 3198 3197 3197
3160 3160 3160 3160 3160 3160 3160 3160 3160 3161 3161 3161 3161 3162 3162 3162 3162 3163 3163 3164 3164 3164 3163 3163 3163 3164 3164 3164 3164 3165 3165 3165 3166 3166 3167 3168 3168 3168 3169 3170 3170 3171 3173 3174 3174 3175 3176 3177 3179 3180 3181 3182 3183 3184 3185 3186 3188 3189 3190 3192 3193 3193 3194 3195 3196 3197 3198 3199 3199 3200 3200 3201 3201 3201 3201 3201 3201 3200 3200 3200 3200 3199 3199 3198 3198
3159 3159 3159 3159 3159 3159 3159 3160 3160 3160 3161 3161 3161 3161 3162 3162 3162 3163 3163 3164 3164 3164 3163 3163 3163 3164 3164 3164 3165 3165 3165 3166 3166 3166 3167 3167 3167 3168 3169 3170 3170 3171 3172 3173 3174 3175 3176 3178 3179 3180 3181 3182 3184 3185 3185 3186 3188 3189 3191 3192 3193 3194 3194 3195 3196 3197 3198 3199 3200 3201 3201 3202 3202 3202 3202 3202 3201 3201 3201 3201 3201 3200 3200 3199 3199
3158 3159 3159 3159 3159 3159 3159 3159 3160 3160 3160 3160 3161 3161 3161 3162 3162 3163 3163 3164 3164 3164 3164 3164 3164 3164 3164 3165 3165 3165 3166 3166 3166 3166 3166 3166 3167 3167 3168 3170 3170 3171 3172 3173 3174 3175 3176 3178 3179 3180 3181 3182 3184 3185 3186 3187 3188 3189 3191 3192 3193 3194 3195 3195 3197 3198 3199 3200 3201 3202 3202 3202 3203 3203 3203 3203 3202 3202 3202 3202 3201 3201 3200 3200 3199
3158 3158 3158 3158 3158 3158 3158 3159 3159 3159 3160 3160 3161 3161 3162 3162 3163 3163 3164 3164 3164 3164 3164 3164 3164 3165 3165 3165 3166 3166 3166 3166 3166 3166 3166 3166 3167 3167 3168 3169 3170 3171 3172 3173 3174 3175 3176 3177 3178 3180 3181 3182 3183 3185 3186 3187 3188 3189 3191 3192 3193 3194 3195 3196 3197 3198 3199 3200 3201 3202 3203 3203 3203 3203 3203 3203 3203 3203 3203 3202 3202 3202 3201 3201 3200
3157 3158 3158 3158 3158 3158 3158 3158 3159 3159 3159 3160 3160 3161 3162 3162 3163 3163 3164 3164 3164 3164 3164 3165 3165 3165 3165 3166 3166 3166 3166 3166 3166 3166 3166 3166 3167 3167 3168 3168 3169 3170 3171 3173 3174 3175 3176 3177 3178 3179 3180 3182 3183 3185 3186 3187 3188 3189 3191 3192 3193 3194 3195 3196 3197 3198 3199 3200 3201 3202 3203 3204 3204 3204 3204 3204 3204 3204 3203 3203 3203 3202 3202 3201 3201
3157 3157 3157 3158 3158 3158 3158 3158 3158 3159 3159 3159 3160 3161 3161 3162 3162 3163 3163 3164 3164 3164 3165 3165 3165 3165 3166 3166 3166 3166 3166 3166 3166 3166 3166 3166 3167 3167 3168 3168 3169 3170 3171 3172 3174 3175 3176 3176 3178 3179 3180 3181 3182 3184 3186 3187 3188 3189 3190 3192 3193 3194 3195 3196 3197 3198 3199 3200 3201 3202 3203 3204 3204 3205 3205 3205 3205 3205 3204 3204 3203 3203 3202 3202 3202
3156 3157 3157 3157 3158 3158 3158 3158 3159 3159 3159 3159 3160 3161 3161 3162 3162 3163 3163 3163 3164 3164 3165 3165 3165 3165 3166 3166 3166 3166 3166 3166 3166 3166 3166 3167 3167 3167 3168 3169 3169 3170 3171 3172 3173 3174 3175 3176 3177 3178 3179 3181 3182 3183 3185 3186 3188 3189 3190 3191 3193 3194 3195 3196 3197 3198 3199 3200 3201 3202 3203 3204 3205 3205 3206 3206 3206 3205 3205 3205 3204 3204 3203 3203 3202
3156 3156 3157 3157 3157 3158 3158 3158 3159 3159 3159 3159 3160 3160 3161 3161 3162 3163 3163 3163 3164 3164 3165 3165 3165 3165 3165 3166 3166 3166 3166 3166 3166 3166 3166 3167 3167 3167 3168 3169 3169 3170 3171 3171 3173 3174 3174 3175 3176 3177 3178 3180 3181 3183 3185 3186 3187 3189 3190 3191 3193 3194 3195 3196 3197 3198 3199 3200 3201 3202 3203 3204 3205 3206 3206 3206 3206 3206 3206 3205 3205 3204 3204 3204 3203
3156 3156 3156 3157 3157 3157 3158 3158 3159 3159 3159 3159 3160 3160 3161 3162 3162 3163 3163 3163 3164 3164 3164 3165 3165 3165 3165 3166 3166 3166 3166 3166 3166 3166 3166 3167 3167 3167 3168 3168 3169 3170 3171 3171 3172 3173 3173 3174 3175 3176 3178 3179 3181 3182 3184 3186 3187 3188 3189 3190 3192 3194 3195 3196 3198 3199 3199 3200 3201 3202 3203 3204 3205 3206 3206 3206 3206 3207 3206 3206 3206 3205 3205 3204 3204
3156 3156 3156 3157 3157 3157 3158 3158 3159 3159 3159 3160 3160 3160 3161 3162 3162 3163 3163 3163 3164 3164 3164 3165 3165 3165 3165 3165 3165 3166 3166 3166 3166 3166 3166 3166 3167 3167 3168 3168 3169 3170 3170 3171 3172 3173 3173 3174 3175 3176 3177 3179 3180 3182 3183 3185 3186 3187 3189 3190 3191 3193 3195 3196 3197 3199 3200 3200 3201 3202 3203 3204 3205 3206 3206 3207 3207 3207 3207 3207 3206 3206 3205 3205 3205
3156 3156 3156 3157 3157 3158 3158 3158 3159 3159 3159 3160 3160 3161 3161 3161 3162 3162 3163 3163 3164 3164 3164 3164 3164 3164 3165 3165 3165 3166 3166 3166 3166 3166 3166 3166 3166 3167 3167 3167 3168 3169 3170 3170 3171 3172 3173 3173 3174 3176 3177 3178 3180 3181 3183 3184 3186 3187 3188 3190 3191 3192 3194 3196 3197 3198 3199 3200 3201 3202 3203 3204 3205 3206 3206 3207 3207 3207 3207 3207 3207 3206 3206 3206 3205
3156 3156 3156 3157 3157 3158 3158 3158 3159 3159 3159 3160 3160 3160 3161 3161 3162 3162 3163 3163 3164 3164 3164 3164 3164 3164 3165 3165 3165 3166 3166 3166 3166 3166 3165 3165 3166 3166 3166 3167 3167 3168 3169 3170 3170 3171 3172 3173 3173 3175 3176 3178 3179 3181 3183 3184 3185 3186 3188 3189 3190 3192 3193 3195 3197 3198 3199 3200 3201 3202 3203 3204 3205 3205 3206 3207 3207 3207 3207 3207 3207 3207 3206 3206 3206
3155 3156 3156 3157 3157 3158 3158 3158 3159 3159 3159 3159 3160 3160 3161 3161 3161 3162 3162 3163 3163 3164 3164 3164 3164 3164 3165 3165 3165 3166 3166 3166 3166 3166 3165 3165 3166 3166 3166 3166 3167 3167 3168 3169 3169 3171 3172 3172 3173 3174 3176 3177 3179 3180 3182 3184 3185 3186 3187 3189 3190 3191 3193 3194 3196 3197 3199 3200 3201 3202 3202 3203 3204 3205 3206 3206 3207 3207 3207 3207 3207 3207 3206 3206 3206
3155 3156 3156 3157 3157 3158 3158 3158 3159 3159 3159 3159 3160 3160 3160 3160 3161 3161 3162 3162 3163 3163 3163 3163 3164 3164 3165 3165 3165 3165 3165 3166 3166 3166 3166 3166 3166 3166 3166 3166 3166 3166 3167 3168 3168 3169 3171 3172 3172 3173 3175 3177 3178 3180 3182 3183 3184 3186 3187 3188 3190 3191 3192 3193 3195 3197 3198 3199 3200 3201 3202 3203 3204 3205 3205 3206 3207 3207 3207 3207 3207 3207 3206 3206 3206
3154 3155 3156 3156 3157 3157 3157 3158 3158 3159 3159 3159 3160 3160 3160 3160 3160 3161 3162 3162 3162 3162 3163 3163 3164 3164 3164 3164 3165 3165 3165 3165 3165 3166 3165 3165 3166 3165 3165 3165 3165 3165 3166 3167 3167 3168 3169 3171 3171 3172 3174 3176 3177 3179 3181 3182 3184 3185 3186 3188 3189 3190 3192 3193 3194 3196 3197 3198 3200 3201 3202 3203 3203 3204 3205 3206 3206 3207 3207 3207 3207 3207 3206 3206 3206
3154 3155 3155 3156 3156 3156 3157 3157 3158 3158 3159 3159 3159 3160 3160 3159 3159 3161 3161 3160 3161 3162 3163 3163 3163 3164 3164 3164 3164 3164 3164 3165 3165 3165 3165 3165 3165 3165 3165 3164 3164 3164 3165 3165 3166 3167 3168 3169 3170 3172 3173 3174 3176 3178 3179 3181 3183 3184 3186 3187 3188 3190 3191 3192 3194 3195 3196 3198 3199 3200 3201 3202 3203 3204 3204 3205 3205 3206 3206 3206 3206 3206 3206 3206 3206
3154 3154 3155 3155 3155 3156 3156 3157 3157 3157 3158 3158 3159 3159 3159 3158 3159 3160 3159 3159 3162 3163 3162 3162 3163 3163 3163 3163 3163 3164 3164 3164 3164 3164 3164 3164 3164 3164 3164 3164 3163 3163 3164 3164 3164 3165 3166 3167 3169 3170 3172 3173 3175 3177 3178 3180 3182 3183 3185 3186 3187 3189 3190 3191 3193 3194 3195 3197 3198 3199 3200 3201 3202 3203 3203 3204 3204 3205 3205 3205 3205 3205 3205 3205 3205
3153 3154 3154 3154 3155 3155 3156 3156 3156 3156 3157 3158 3159 3159 3158 3158 3159 3159 3158 3159 3162 3161 3160 3161 3162 3162 3162 3162 3162 3163 3163 3163 3163 3163 3163 3163 3164 3164 3164 3164 3163 3163 3163 3163 3163 3164 3164 3166 3167 3169 3170 3171 3173 3176 3177 3178 3180 3182 3183 3185 3186 3188 3189 3190 3192 3193 3194 3196 3197 3198 3199 3200 3201 3202 3203 3203 3204 3204 3205 3205 3205 3205 3205 3205 3205
3153 3153 3154 3154 3154 3155 3155 3156 3156 3156 3157 3157 3158 3158 3158 3159 3158 3158 3159 3161 3161 3159 3159 3160 3161 3161 3161 3162 3162 3162 3162 3162 3162 3162 3162 3162 3163 3163 3163 3163 3163 3163 3162 3162 3162 3162 3163 3164 3165 3167 3169 3170 3172 3174 3176 3177 3178 3180 3182 3184 3185 3187 3188 3190 3191 3192 3194 3195 3196 3197 3199 3200 3200 3201 3202 3203 3204 3204 3204 3205 3205 3205 3205 3204 3204
3152 3153 3153 3153 3154 3155 3155 3155 3155 3156 3156 3156 3157 3157 3157 3158 3157 3158 3159 3160 3159 3158 3158 3160 3160 3160 3160 3161 3161 3161 3161 3161 3161 3161 3161 3162 3162 3162 3162 3162 3162 3162 3162 3161 3161 3161 3162 3162 3163 3165 3167 3168 3170 3172 3174 3176 3177 3178 3181 3182 3184 3185 3187 3189 3190 3192 3193 3194 3195 3196 3198 3199 3200 3201 3202 3202 3203 3204 3204 3204 3205 3205 3205 3204 3204
3152 3152 3152 3153 3153 3154 3154 3155 3155 3155 3156 3156 3156 3156 3156 3157 3157 3157 3158 3158 3158 3158 3158 3159 3159 3159 3159 3160 3160 3160 3160 3160 3160 3161 3161 3161 3161 3161 3161 3161 3161 3162 3162 3161 3160 3161 3161 3161 3162 3164 3165 3167 3168 3170 3173 3175 3175 3177 3179 3181 3182 3184 3186 3187 3189 3190 3192 3193 3194 3195 3197 3198 3199 3200 3201 3202 3202 3203 3204 3204 3204 3204 3204 3204 3203
3151 3152 3152 3152 3153 3153 3154 3154 3154 3155 3155 3155 3155 3155 3155 3156 3156 3156 3156 3157 3157 3157 3158 3158 3158 3158 3159 3159 3159 3159 3159 3160 3160 3160 3160 3160 3160 3160 3160 3160 3161 3161 3161 3160 3159 3159 3160 3160 3161 3163 3164 3165 3166 3168 3171 3173 3174 3175 3177 3179 3181 3183 3184 3186 3188 3189 3191 3192 3193 3194 3196 3197 3198 3199 3200 3201 3202 3202 3203 3203 3204 3204 3204 3203 3203
3151 3151 3152 3152 3152 3153 3153 3153 3154 3154 3154 3154 3154 3154 3154 3154 3154 3155 3155 3155 3156 3157 3157 3157 3157 3157 3157 3158 3158 3158 3158 3159 3159 3159 3159 3159 3160 3160 3160 3160 3160 3160 3160 3160 3159 3158 3159 3159 3159 3161 3163 3164 3165 3167 3169 3172 3173 3174 3176 3178 3179 3181 3183 3185 3186 3188 3189 3190 3192 3193 3195 3196 3197 3198 3199 3200 3201 3201 3202 3203 3203 3203 3203 3203 3202
3151 3151 3152 3152 3152 3152 3152 3152 3153 3153 3153 3153 3153 3153 3153 3153 3153 3154 3154 3154 3155 3155 3156 3156 3156 3156 3156 3157 3157 3157 3157 3158 3158 3158 3158 3159 3159 3159 3159 3159 3159 3160 3160 3159 3159 3158 3158 3158 3159 3160 3161 3163 3164 3166 3168 3171 3172 3174 3175 3177 3178 3180 3181 3183 3184 3186 3187 3189 3190 3192 3193 3195 3196 3197 3198 3199 3200 3201 3201 3202 3202 3202 3202 3202 3202
3150 3151 3151 3151 3152 3152 3152 3152 3152 3152 3151 3151 3151 3151 3152 3152 3152 3152 3152 3153 3153 3154 3154 3154 3154 3155 3155 3156 3156 3156 3156 3157 3157 3157 3157 3158 3158 3159 3159 3159 3159 3159 3159 3159 3159 3158 3157 3158 3158 3159 3160 3161 3163 3164 3167 3169 3171 3173 3174 3175 3177 3178 3180 3181 3183 3184 3186 3187 3189 3191 3192 3194 3195 3196 3197 3198 3199 3200 3200 3201 3201 3201 3201 3201 3201
3150 3150 3151 3151 3151 3151 3151 3151 3151 3150 3150 3150 3150 3150 3150 3150 3150 3151 3151 3151 3151 3152 3152 3152 3153 3153 3154 3154 3155 3155 3155 3155 3156 3156 3156 3157 3157 3158 3158 3159 3159 3159 3159 3159 3158 3158 3157 3157 3157 3158 3159 3160 3161 3163 3165 3168 3170 3171 3173 3174 3176 3177 3178 3180 3181 3183 3184 3186 3187 3189 3191 3192 3194 3195 3196 3197 3198 3198 3199 3200 3200 3200 3200 3201 3201
3149 3150 3150 3150 3150 3150 3150 3150 3149 3149 3149 3149 3149 3149 3149 3149 3149 3149 3149 3149 3150 3150 3151 3151 3151 3152 3152 3153 3153 3153 3154 3154 3154 3154 3155 3156 3157 3157 3158 3158 3158 3158 3158 3158 3158 3158 3157 3156 3156 3157 3158 3158 3159 3161 3163 3166 3168 3170 3171 3173 3174 3176 3177 3178 3180 3181 3183 3184 3186 3187 3189 3191 3192 3193 3195 3196 3196 3197 3198 3198 3199 3199 3199 3200 3200
3149 3149 3149 3149 3149 3148 3148 3148 3148 3148 3147 3147 3147 3147 3147 3147 3147 3147 3148 3148 3148 3148 3149 3150 3150 3150 3151 3151 3152 3152 3152 3153 3153 3153 3154 3155 3157 3157 3157 3157 3157 3157 3157 3158 3158 3158 3157 3156 3156 3156 3157 3157 3158 3159 3161 3164 3166 3169 3170 3171 3173 3174 3175 3177 3178 3180 3181 3183 3184 3186 3187 3189 3190 3192 3193 3194 3195 3196 3196 3197 3197 3198 3198 3198 3199
3148 3148 3148 3147 3147 3147 3147 3147 3146 3146 3146 3146 3146 3146 3146 3146 3146 3146 3146 3146 3147 3147 3147 3148 3148 3149 3150 3150 3150 3151 3151 3151 3152 3152 3153 3155 3157 3156 3155 3156 3157 3157 3157 3157 3157 3157 3157 3156 3156 3156 3156 3156 3156 3157 3159 3161 3164 3166 3168 3169 3171 3172 3174 3175 3176 3178 3179 3181 3182 3184 3186 3187 3189 3190 3191 3192 3193 3194 3195 3195 3196 3196 3197 3197 3197
3147 3147 3146 3146 3146 3145 3145 3145 3145 3145 3144 3144 3144 3144 3144 3144 3144 3144 3144 3145 3145 3145 3145 3146 3147 3148 3148 3149 3149 3149 3150 3151 3151 3151 3152 3156 3157 3154 3154 3156 3156 3155 3155 3155 3155 3155 3155 3155 3155 3155 3155 3155 3155 3156 3157 3159 3161 3163 3166 3167 3169 3171 3172 3173 3175 3176 3178 3179 3181 3182 3184 3185 3187 3188 3189 3190 3191 3192 3193 3194 3194 3195 3195 3196 3196
3146 3145 3145 3145 3145 3144 3144 3144 3143 3143 3143 3143 3143 3143 3143 3143 3143 3143 3143 3143 3143 3144 3144 3145 3145 3146 3147 3147 3148 3148 3149 3149 3150 3150 3152 3156 3156 3153 3153 3155 3154 3153 3153 3153 3153 3154 3154 3154 3154 3155 3154 3154 3155 3155 3155 3156 3158 3160 3163 3165 3167 3169 3170 3172 3173 3174 3176 3177 3179 3180 3182 3183 3185 3186 3187 3188 3189 3190 3191 3192 3193 3193 3194 3194 3194
3144 3144 3144 3144 3143 3143 3143 3142 3142 3142 3141 3141 3141 3142 3142 3141 3142 3141 3141 3141 3142 3142 3143 3143 3144 3144 3145 3145 3146 3146 3147 3148 3149 3149 3150 3153 3154 3152 3151 3153 3153 3153 3153 3152 3152 3152 3152 3153 3153 3153 3153 3153 3154 3155 3154 3155 3156 3158 3161 3163 3165 3167 3168 3170 3171 3172 3174 3176 3177 3178 3179 3181 3182 3184 3185 3186 3187 3188 3189 3190 3191 3192 3192 3192 3193
3143 3143 3143 3142 3142 3141 3141 3141 3141 3140 3140 3140 3140 3140 3140 3140 3140 3140 3139 3140 3140 3141 3141 3142 3142 3143 3143 3143 3144 3145 3145 3146 3147 3147 3148 3151 3152 3149 3149 3151 3152 3151 3150 3150 3151 3151 3152 3152 3152 3152 3152 3152 3153 3154 3154 3154 3154 3157 3159 3160 3163 3165 3166 3167 3169 3170 3172 3173 3175 3176 3177 3178 3180 3181 3183 3184 3185 3186 3187 3188 3189 3190 3190 3191 3191
3141 3141 3141 3141 3140 3140 3139 3139 3139 3139 3138 3138 3138 3138 3138 3138 3137 3137 3138 3138 3139 3139 3140 3140 3141 3140 3141 3141 3141 3142 3143 3144 3145 3145 3146 3147 3148 3148 3149 3150 3150 3149 3149 3149 3151 3151 3152 3151 3152 3152 3152 3152 3152 3153 3153 3153 3153 3155 3156 3158 3160 3162 3164 3165 3167 3168 3170 3171 3172 3174 3175 3176 3178 3179 3180 3182 3183 3184 3185 3186 3187 3187 3188 3189 3189
3140 3140 3139 3139 3138 3138 3138 3138 3138 3137 3137 3137 3137 3137 3136 3136 3135 3135 3136 3137 3137 3138 3138 3139 3139 3138 3138 3139 3139 3140 3142 3142 3143 3143 3143 3144 3145 3147 3149 3148 3147 3148 3148 3149 3149 3149 3150 3150 3150 3151 3151 3151 3151 3151 3152 3152 3153 3153 3154 3155 3157 3159 3161 3163 3164 3166 3167 3169 3170 3172 3173 3174 3176 3177 3178 3179 3180 3181 3182 3183 3184 3185 3186 3186 3187
3138 3138 3138 3138 3137 3137 3137 3137 3137 3137 3136 3136 3136 3135 3135 3134 3134 3134 3134 3135 3136 3136 3136 3137 3137 3136 3136 3137 3137 3138 3140 3141 3141 3140 3141 3141 3142 3145 3147 3146 3146 3147 3148 3148 3147 3147 3147 3148 3149 3149 3149 3150 3150 3150 3151 3151 3152 3152 3152 3153 3154 3156 3158 3160 3162 3163 3165 3166 3168 3169 3171 3172 3173 3174 3176 3177 3178 3179 3180 3181 3182 3183 3183 3184 3185
3137 3137 3137 3137 3137 3137 3137 3137 3136 3136 3136 3135 3135 3134 3134 3133 3132 3132 3132 3133 3134 3134 3134 3134 3134 3134 3134 3135 3136 3136 3138 3139 3139 3138 3138 3139 3141 3143 3145 3145 3145 3146 3146 3146 3146 3146 3147 3148 3148 3148 3149 3149 3149 3149 3150 3150 3150 3150 3151 3152 3153 3154 3156 3158 3159 3161 3162 3164 3165 3167 3168 3169 3171 3172 3173 3174 3175 3176 3177 3178 3179 3180 3181 3181 3182
3135 3136 3136 3136 3136 3136 3136 3136 3136 3135 3135 3134 3134 3133 3132 3132 3131 3131 3131 3131 3131 3132 3132 3132 3132 3132 3133 3133 3134 3135 3136 3136 3136 3136 3136 3138 3139 3140 3142 3143 3144 3145 3145 3145 3145 3145 3145 3145 3146 3147 3147 3148 3148 3148 3149 3149 3149 3150 3151 3151 3152 3153 3154 3156 3157 3158 3160 3161 3163 3164 3166 3167 3168 3170 3171 3172 3173 3174 3175 3175 3176 3177 3178 3179 3179
3134 3135 3135 3135 3135 3135 3135 3135 3135 3135 3134 3133 3133 3132 3131 3130 3130 3129 3129 3129 3129 3130 3130 3130 3130 3131 3131 3132 3132 3133 3133 3134 3133 3133 3134 3135 3137 3138 3140 3141 3142 3143 3143 3143 3143 3144 3144 3144 3144 3145 3146 3146 3146 3147 3147 3148 3148 3149 3150 3151 3151 3152 3153 3154 3155 3156 3158 3159 3161 3162 3163 3165 3166 3167 3168 3169 3170 3171 3172 3173 3174 3175 3175 3176 3176
3133 3134 3134 3134 3134 3135 3135 3135 3135 3134 3134 3133 3132 3131 3130 3129 3128 3128 3128 3128 3128 3128 3128 3129 3129 3129 3130 3130 3130 3131 3131 3132 3131 3131 3132 3133 3134 3135 3137 3139 3140 3140 3140 3141 3142 3142 3142 3142 3143 3143 3144 3145 3145 3145 3146 3146 3147 3148 3150 3150 3151 3152 3152 3153 3154 3155 3156 3157 3158 3160 3161 3162 3163 3164 3165 3166 3167 3168 3169 3170 3171 3172 3172 3173 3174
3133 3133 3133 3133 3134 3134 3134 3134 3134 3134 3133 3133 3132 3131 3130 3129 3128 3127 3127 3126 3127 3127 3127 3128 3128 3128 3128 3129 3129 3129 3130 3130 3130 3130 3130 3131 3132 3133 3134 3136 3137 3138 3137 3138 3139 3140 3140 3141 3141 3142 3142 3143 3144 3144 3145 3145 3146 3147 3148 3149 3150 3151 3151 3152 3153 3154 3155 3156 3157 3158 3159 3160 3160 3161 3162 3163 3164 3165 3166 3167 3167 3168 3169 3170 3171
3131 3132 3132 3132 3133 3133 3133 3133 3133 3133 3133 3132 3132 3131 3130 3129 3128 3127 3127 3126 3126 3126 3127 3127 3127 3127 3127 3128 3128 3128 3128 3128 3128 3128 3129 3130 3130 3131 3132 3133 3134 3135 3135 3135 3136 3138 3138 3138 3139 3140 3141 3141 3142 3143 3144 3144 3145 3146 3146 3147 3148 3149 3150 3151 3152 3152 3153 3154 3155 3156 3157 3157 3158 3158 3159 3160 3161 3162 3162 3163 3164 3165 3166 3167 3167
3130 3130 3131 3131 3131 3132 3132 3132 3132 3132 3132 3132 3131 3130 3129 3128 3128 3127 3127 3126 3126 3126 3126 3126 3126 3127 3127 3127 3127 3127 3127 3127 3127 3127 3127 3128 3129 3129 3130 3131 3132 3132 3132 3133 3134 3135 3136 3136 3137 3138 3139 3140 3140 3141 3142 3143 3144 3144 3144 3145 3146 3146 3148 3149 3150 3150 3152 3153 3154 3155 3155 3156 3156 3157 3158 3158 3159 3159 3160 3161 3161 3162 3163 3164 3164
3128 3129 3129 3130 3130 3131 3131 3131 3131 3131 3131 3131 3131 3130 3129 3128 3127 3127 3126 3126 3126 3126 3126 3126 3126 3126 3126 3126 3126 3126 3126 3126 3126 3126 3126 3127 3127 3128 3128 3130 3130 3131 3130 3131 3131 3133 3133 3134 3134 3136 3137 3138 3138 3139 3140 3141 3142 3143 3143 3144 3144 3145 3146 3146 3147 3148 3150 3150 3152 3153 3154 3155 3155 3155 3156 3156 3157 3158 3158 3159 3159 3160 3160 3161 3162
3126 3128 3128 3129 3129 3129 3130 3130 3130 3130 3130 3130 3130 3129 3128 3127 3127 3126 3126 3126 3126 3126 3126 3126 3126 3126 3126 3126 3126 3126 3126 3126 3126 3125 3125 3126 3126 3126 3127 3128 3129 3129 3129 3129 3130 3131 3131 3131 3132 3133 3134 3135 3136 3137 3138 3138 3140 3141 3141 3142 3143 3143 3144 3145 3145 3146 3147 3148 3149 3150 3151 3153 3154 3154 3155 3155 3155 3156 3157 3157 3158 3158 3159 3159 3160
3125 3126 3127 3127 3128 3128 3128 3129 3128 3128 3129 3130 3129 3129 3128 3127 3126 3125 3125 3125 3126 3126 3126 3126 3126 3126 3126 3126 3126 3126 3126 3126 3125 3125 3125 3125 3125 3126 3126 3127 3127 3128 3128 3128 3128 3129 3130 3130 3130 3131 3132 3133 3134 3135 3136 3136 3138 3138 3139 3140 3141 3142 3143 3143 3144 3145 3145 3146 3147 3148 3149 3150 3151 3152 3153 3153 3154 3154 3155 3156 3156 3157 3157 3158 3158
3123 3125 3125 3125 3126 3127 3127 3127 3127 3127 3128 3128 3129 3128 3127 3127 3126 3125 3125 3125 3125 3125 3125 3126 3126 3126 3126 3125 3125 3125 3125 3125 3125 3125 3124 3124 3125 3125 3125 3125 3126 3126 3126 3126 3127 3127 3128 3128 3129 3129 3130 3131 3131 3132 3133 3134 3135 3136 3137 3138 3139 3140 3140 3141 3142 3142 3143 3144 3145 3146 3147 3148 3148 3149 3150 3151 3152 3152 3153 3154 3154 3155 3155 3156 3156
3121 3123 3124 3124 3125 3126 3126 3126 3126 3126 3127 3127 3127 3127 3127 3126 3125 3125 3125 3125 3125 3125 3125 3125 3125 3125 3125 3125 3124 3124 3124 3124 3124 3124 3124 3124 3124 3124 3124 3124 3125 3125 3125 3125 3125 3126 3127 3127 3127 3127 3128 3129 3129 3130 3131 3131 3132 3133 3134 3135 3136 3137 3137 3138 3139 3140 3141 3141 3142 3143 3144 3145 3146 3146 3147 3147 3149 3150 3151 3151 3152 3153 3153 3153 3154
3118 3121 3122 3122 3123 3124 3124 3124 3124 3125 3126 3126 3126 3126 3126 3125 3125 3124 3124 3124 3124 3124 3124 3124 3124 3124 3124 3124 3124 3123 3123 3123 3123 3123 3123 3123 3123 3123 3123 3124 3124 3124 3124 3124 3124 3125 3126 3126 3126 3127 3127 3127 3127 3128 3129 3129 3130 3130 3131 3131 3132 3133 3134 3135 3136 3137 3137 3138 3139 3140 3141 3142 3143 3144 3144 3145 3146 3147 3148 3148 3149 3150 3150 3150 3151
3115 3118 3119 3120 3121 3122 3123 3123 3123 3124 3124 3125 3125 3125 3125 3125 3124 3124 3124 3123 3123 3123 3123 3123 3123 3123 3123 3123 3123 3122 3122 3122 3122 3122 3122 3122 3122 3122 3123 3123 3123 3123 3123 3123 3124 3124 3124 3125 3125 3126 3126 3126 3126 3127 3127 3128 3128 3128 3129 3129 3130 3130 3131 3132 3133 3134 3134 3135 3136 3137 3138 3139 3140 3141 3141 3142 3143 3144 3145 3146 3146 3146 3147 3147 3148